FENGYUN 1C DEB

Satellite information

Favourite Embed

Satellite Type and Status

DEBRISIN ORBIT

Key statistics

Satellite FENGYUN 1C DEB at a glance.

Uptime

9496

Days in orbit

Revolutions

≈ 14.1

Per day

Orbit

SSO

Sun Synchronous Orbit

Inclination

98.8

Latest

Satellite identification and parameters

Extended collection of information and parameters for FENGYUN 1C DEB.

Object identification

Identified? True

Debris? True

Object name: FENGYUN 1C DEB

International designator: 1999-025BHP

Object number (NORAD): 31161

Object ID (CCSDS): 31161

Country: PEOPLES REPUBLIC OF CHINA (PRC)

Current information (Y/N): Y

RCS size: SMALL

Orbital parameters

Period: 102.202 minutes

Inclination: 98.7641 deg

SMA: 7241.022 km

Apoapsis: 911.913 km

Periapsis: 813.862 km

RAAN: 155.9714 deg

Eccentricy: 0.0067705

Argument of periapsis: 245.945 deg

Mean anomaly: 113.4625 deg

Mean motion: 14.08973848 rev/day

Mean motion (dot): 0.00000509 rev/day2

B* drag term: 0.00031237 1/REarth

Two-line elements (TLE)

Creation date: May 9, 2025, 2:46 a.m.

Reference frame: TEME

Reference center: EARTH

Epoch: May 8, 2025, 7:47 a.m. UTC

TLE line 0: 0 FENGYUN 1C DEB

TLE line 1: 1 31161U 99025BHP 25128.32475310 .00000509 00000-0 31237-3 0 9993

TLE line 2: 2 31161 98.7641 155.9714 0067705 245.9450 113.4625 14.08973848930269

Live tracking on map

Real-time ground track for satellite FENGYUN 1C DEB.

In-orbit conjunctions

A list of the most updated potential collisions computed for object FENGYUN 1C DEB.

Target Orbit TCA Probability of collision Miss distance Type
FENGYUN 1C DEB SSO 2025-03-18 01:40:00 0.0002830746 176.0 (m) DEBRIS
CZ-6A DEB SSO 2025-01-08 05:05:54 0.0001430017 384.0 (m) DEBRIS
COSMOS 2251 DEB LEO 2024-12-27 20:17:18 0.0001267659 193.0 (m) DEBRIS

Associated space launch

Chinese polar orbiting meteorological satellite

FENGYUN 1C DEB was lifted into orbit during the mission ‘Long March 4B | Feng Yun 1C’, on board a Long March 4B space rocket.

The launch took place on May 10, 1999, 1:33 a.m. from Launch Complex 7.

For more information about the launch, click the button.

Launch to space Long March 4B | Feng Yun 1C
Long March 4B | Feng Yun 1C

Agency: N/A

Status: Launch Successful

Launch date: May 10, 1999, 1:33 a.m. UTC

Rocket: Long March 4B

Launch pad: Launch Complex 7

Location: Taiyuan Satellite Launch Center, People's Republic of China

...

Latest news about this satellite

There are no fresh news available about this satellite. Check back as we update our databases every day.


Newsletter sign-up

Weekly statistics, charts and insights to help you stay on top of the space industry.